| time (UTC) | temp F | wind direction | speed knots | gust knots | rain 1hr in | rain 24hr in | rain mn in | humidity % | barometer mb |
| 20260503223004 | 79 | 85 | 0.9 | 3.5 | 0.00 | 0.00 | 0.00 | 52 | 1010.5 |
| 20260503222004 | 80 | 121 | 0.9 | 5.2 | 0.00 | 0.00 | 0.00 | 49 | 1010.5 |
| 20260503220004 | 79 | 17 | 1.7 | 7.8 | 0.00 | 0.00 | 0.00 | 48 | 1010.6 |
| 20260503215005 | 80 | 18 | 0.9 | 5.2 | 0.00 | 0.00 | 0.00 | 44 | 1010.8 |
| 20260503214004 | 79 | 286 | 1.7 | 7.0 | 0.00 | 0.00 | 0.00 | 45 | 1010.8 |
| 20260503213004 | 79 | 283 | 1.7 | 5.2 | 0.00 | 0.00 | 0.00 | 45 | 1010.9 |
| 20260503212004 | 79 | 263 | 0.9 | 5.2 | 0.00 | 0.00 | 0.00 | 47 | 1011.2 |
| 20260503210005 | 78 | 163 | 0.9 | 3.5 | 0.00 | 0.00 | 0.00 | 51 | 1011.2 |
| 20260503205004 | 78 | 350 | 1.7 | 7.8 | 0.00 | 0.00 | 0.00 | 52 | 1011.4 |
| 20260503204005 | 77 | 359 | 1.7 | 5.2 | 0.00 | 0.00 | 0.00 | 47 | 1011.6 |
| 20260503202004 | 76 | 285 | 2.6 | 8.7 | 0.00 | 0.00 | 0.00 | 50 | 1011.8 |
| 20260503201004 | 77 | 320 | 1.7 | 6.1 | 0.00 | 0.00 | 0.00 | 49 | 1011.8 |
| 20260503200004 | 77 | 267 | 0.9 | 5.2 | 0.00 | 0.00 | 0.00 | 51 | 1011.9 |
| 20260503195004 | 76 | 281 | 1.7 | 7.0 | 0.00 | 0.00 | 0.00 | 56 | 1012.0 |
| 20260503194004 | 75 | 298 | 1.7 | 7.8 | 0.00 | 0.00 | 0.00 | 54 | 1012.2 |
| 20260503193004 | 75 | 281 | 1.7 | 7.8 | 0.00 | 0.00 | 0.00 | 53 | 1012.2 |
| 20260503192004 | 74 | 333 | 1.7 | 7.8 | 0.00 | 0.00 | 0.00 | 55 | 1012.3 |
| 20260503190005 | 74 | 282 | 1.7 | 9.6 | 0.00 | 0.00 | 0.00 | 55 | 1012.6 |
| 20260503185004 | 73 | 280 | 1.7 | 5.2 | 0.00 | 0.00 | 0.00 | 57 | 1012.7 |
| 20260503183004 | 72 | 278 | 2.6 | 7.0 | 0.00 | 0.00 | 0.00 | 60 | 1013.0 |
| 20260503181004 | 72 | 270 | 1.7 | 7.0 | 0.00 | 0.00 | 0.00 | 63 | 1013.2 |
| 20260503180004 | 72 | 282 | 2.6 | 8.7 | 0.00 | 0.00 | 0.00 | 60 | 1013.2 |
| 20260503175004 | 72 | 123 | 0.9 | 5.2 | 0.00 | 0.00 | 0.00 | 61 | 1013.2 |
| 20260503173004 | 71 | 312 | 1.7 | 4.3 | 0.00 | 0.00 | 0.00 | 63 | 1013.2 |
| 20260503171005 | 70 | 89 | 0.9 | 4.3 | 0.00 | 0.00 | 0.00 | 62 | 1013.3 |
| 20260503054004 | 60 | 0 | 0.0 | 0.0 | 0.00 | 0.00 | 0.00 | 72 | 1013.3 |
| 20260503053004 | 61 | 0 | 0.0 | 0.0 | 0.00 | 0.00 | 0.00 | 69 | 1013.2 |
| 20260503051004 | 62 | 32 | 0.0 | 0.9 | 0.00 | 0.00 | 0.00 | 67 | 1013.2 |
| 20260503050003 | 63 | 28 | 0.0 | 1.7 | 0.00 | 0.00 | 0.00 | 66 | 1013.2 |
| 20260503045003 | 63 | 353 | 0.0 | 1.7 | 0.00 | 0.00 | 0.00 | 65 | 1013.2 |
| 20260503044004 | 63 | 326 | 0.0 | 2.6 | 0.00 | 0.00 | 0.00 | 63 | 1013.0 |
| 20260503043004 | 64 | 186 | 0.0 | 1.7 | 0.00 | 0.00 | 0.00 | 63 | 1013.1 |
| 20260503042004 | 65 | 76 | 0.0 | 1.7 | 0.00 | 0.00 | 0.00 | 62 | 1013.0 |
| 20260503041004 | 66 | 250 | 0.9 | 4.3 | 0.00 | 0.00 | 0.00 | 60 | 1012.9 |
| 20260503040004 | 66 | 236 | 0.0 | 2.6 | 0.00 | 0.00 | 0.00 | 59 | 1012.8 |
| 20260503034004 | 66 | 258 | 0.9 | 7.8 | 0.00 | 0.00 | 0.00 | 59 | 1012.6 |
| 20260503033004 | 67 | 288 | 0.9 | 6.1 | 0.00 | 0.00 | 0.00 | 58 | 1012.3 |
| 20260503032004 | 67 | 275 | 0.9 | 6.1 | 0.00 | 0.00 | 0.00 | 59 | 1012.2 |
| 20260503031004 | 67 | 270 | 0.0 | 2.6 | 0.00 | 0.00 | 0.00 | 59 | 1012.1 |
| 20260503030005 | 67 | 259 | 0.9 | 3.5 | 0.00 | 0.00 | 0.00 | 59 | 1012.3 |
| 20260503025004 | 68 | 223 | 0.9 | 3.5 | 0.00 | 0.00 | 0.00 | 59 | 1012.0 |
| 20260503024004 | 68 | 257 | 0.9 | 3.5 | 0.00 | 0.00 | 0.00 | 59 | 1012.0 |
| 20260503023005 | 68 | 291 | 0.9 | 5.2 | 0.00 | 0.00 | 0.00 | 58 | 1012.0 |
| 20260503022004 | 68 | 297 | 1.7 | 9.6 | 0.00 | 0.00 | 0.00 | 57 | 1011.9 |
| 20260503021004 | 68 | 267 | 0.9 | 8.7 | 0.00 | 0.00 | 0.00 | 56 | 1011.9 |
| 20260503015004 | 70 | 285 | 1.7 | 9.6 | 0.00 | 0.00 | 0.00 | 55 | 1011.8 |
| 20260503013004 | 70 | 252 | 0.9 | 7.8 | 0.00 | 0.00 | 0.00 | 54 | 1011.8 |
| 20260503012004 | 71 | 274 | 0.9 | 6.1 | 0.00 | 0.00 | 0.00 | 54 | 1012.1 |
| 20260503011004 | 72 | 256 | 0.9 | 10.4 | 0.00 | 0.00 | 0.00 | 54 | 1012.2 |
| 20260503010004 | 72 | 264 | 1.7 | 6.1 | 0.00 | 0.00 | 0.00 | 54 | 1012.0 |
| 20260503005004 | 72 | 284 | 1.7 | 7.8 | 0.00 | 0.00 | 0.00 | 55 | 1012.2 |
| 20260503004004 | 72 | 254 | 1.7 | 6.1 | 0.00 | 0.00 | 0.00 | 57 | 1012.2 |
| 20260503002005 | 72 | 160 | 0.9 | 4.3 | 0.00 | 0.00 | 0.00 | 57 | 1012.4 |
| 20260503001005 | 72 | 293 | 1.7 | 6.1 | 0.00 | 0.00 | 0.00 | 58 | 1012.5 |
| 20260503000004 | 72 | 3 | 1.7 | 7.0 | 0.00 | 0.00 | 0.00 | 58 | 1012.6 |
| 20260502235004 | 73 | 292 | 1.7 | 6.1 | 0.00 | 0.00 | 0.00 | 58 | 1012.6 |
| 20260502234004 | 72 | 12 | 1.7 | 5.2 | 0.00 | 0.00 | 0.00 | 58 | 1012.9 |
| 20260502233004 | 72 | 310 | 1.7 | 7.8 | 0.00 | 0.00 | 0.00 | 58 | 1013.0 |
| 20260502232004 | 72 | 324 | 1.7 | 7.0 | 0.00 | 0.00 | 0.00 | 58 | 1013.1 |
| 20260502231004 | 72 | 313 | 1.7 | 7.8 | 0.00 | 0.00 | 0.00 | 58 | 1013.3 |
| 20260502230004 | 72 | 323 | 1.7 | 7.8 | 0.00 | 0.00 | 0.00 | 57 | 1013.3 |
| 20260502224003 | 72 | 31 | 1.7 | 5.2 | 0.00 | 0.00 | 0.00 | 61 | 1013.6 |